Regional Weather Roundup
Issued by NWS Wilmington, NC

Home | Current Version | Previous Version | Text Only | Print | Product List | Glossary On
Versions: 1 2 3 4 5 6 7 8 9 10 11 12 13 14 15 16 17 18 19 20 21 22 23 24 25 26 27 28 29 30 31 32 33 34 35 36 37 38 39 40 41 42 43 44 45 46 47 48 49 50
000
ASUS42 KILM 012310
RWRILM
RWRILM
REGIONAL HOURLY WEATHER ROUNDUP
NATIONAL WEATHER SERVICE WILMINGTON NC
600 PM EST SUN MAR 01 2015

NOTE: "FAIR" INDICATES FEW OR NO CLOUDS BELOW 12,000 FEET WITH NO
SIGNIFICANT WEATHER AND/OR OBSTRUCTIONS TO VISIBILITY.

...............WFO WILMINGTON COUNTY WARNING AREA...............

......COASTAL NC AND SC COUNTIES......

CITY           SKY/WX    TMP DP  RH WIND       PRES   REMARKS
WILMINGTON     LGT RAIN  49  46  90 NW5       30.35F FOG
SOUTHPORT      DRIZZLE   51  50  95 NW3       30.36S
N MYRTLE BEACH LGT RAIN  45  43  93 NW5       30.37S FOG
MYRTLE BEACH   CLOUDY    45  41  87 N8        30.39F FOG

......INLAND NC AND SC COUNTIES.......

CITY           SKY/WX    TMP DP  RH WIND       PRES   REMARKS
LUMBERTON      CLOUDY    39  37  92 N6        30.39S FOG     WCI  35
ELIZABETHTOWN  CLOUDY    39  38  99 NW5       30.39R
WHITEVILLE     LGT RAIN  40  39  95 NW3       30.38R
FLORENCE       CLOUDY    39  37  92 NW6       30.41R WCI  35
DARLINGTON     CLOUDY    39  36  87 N6        30.43S WCI  35

....................REST OF NORTH CAROLINA......................

.........EASTERN NC.........

CITY           SKY/WX    TMP DP  RH WIND       PRES   REMARKS
CAPE HATTERAS  CLOUDY    51  49  92 S12       30.33F
JACKSONVILLE   CLOUDY    45  39  81 NW7       30.38S
MOREHEAD CITY  CLOUDY    58  55  90 W7        30.34F
KENANSVILLE    CLOUDY    37  37  97 NW7       30.41R WCI  32
NEW BERN       CLOUDY    46  44  93 NW5       30.37S
ELIZABETH CITY LGT RAIN  41  39  93 W15       30.38R VSB 1

.........CENTRAL NC.........

CITY           SKY/WX    TMP DP  RH WIND       PRES   REMARKS
RALEIGH DURHAM CLOUDY    34  31  88 SE3       30.37F FOG
ROCKY MOUNT    LGT RAIN  34  33  96 CALM      30.38F FOG
ROANOKE RAPIDS NOT AVBL
FAYETTEVILLE   CLOUDY    37  36  96 CALM      30.39F
HOFFMAN        LGT RAIN  37  37 100 S2        30.43S FOG

.........WESTERN NC.........

CITY           SKY/WX    TMP DP  RH WIND       PRES   REMARKS
CHARLOTTE      CLOUDY    39  36  89 SW5       30.38F FOG
GREENSBORO     CLOUDY    36  34  92 SW6       30.35S FOG     WCI  31
HICKORY        NOT AVBL
BOONE          NOT AVBL
ASHEVILLE      NOT AVBL

.....................REST OF SOUTH CAROLINA.....................

.........EASTERN SC.........

CITY           SKY/WX    TMP DP  RH WIND       PRES   REMARKS
CHARLESTON     CLOUDY    44  43  96 N7        30.40R
BEAUFORT MCAS  CLOUDY    46  45  96 N7        30.39S FOG
HILTON HEAD    CLOUDY    48  46  93 N7        30.39S

.........CENTRAL SC.........

CITY           SKY/WX    TMP DP  RH WIND       PRES   REMARKS
COLUMBIA       CLOUDY    42  39  89 VRB3      30.41S
ORANGEBURG     LGT RAIN  42  38  85 N7        30.41R FOG
SUMTER SHAW    CLOUDY    40  39  96 NW7       30.40R WCI  35

.........WESTERN SC.........

CITY           SKY/WX    TMP DP  RH WIND       PRES   REMARKS
GREENVILLE     NOT AVBL
ROCK HILL      CLOUDY    39  38  96 S5        30.38F FOG
ANDERSON       CLOUDY    44  42  93 SW7       30.39F
CLEMSON        NOT AVBL
GREENWOOD      CLOUDY    42  39  89 CALM      30.41S FOG


...................COASTAL AND OFFSHORE REPORTS..................

................LOCAL PIERS AND NC RESERVE................


STATION/POSITION TIME  SKY/WX   TEMP    WIND        PRES    VSBY
                                AIR SEA DIR/SP/G
                 (UTC)          (F)     (DEG/KT/KT) (MB)    (MI)
JOHNY MRCER PIER 2300            50 48  310/  2/  5 1027.1S
NC RESRV MASNBRO 2200            51     340/  1     1027.0F
OCEAN CREST PIER 2300            51 46  290/  5/  6 1027.1S
SPRINGMAID  PIER 2300            44 44  310/  6/  8 1028.4F


................COASTAL AND OFFSHORE BUOYS................


STATION/POSITION TIME  SKY/WX   TEMP    WIND        PRES    VSBY
                                AIR SEA DIR/SP/G
                 (UTC)          (F)     (DEG/KT/KT) (MB)    (MI)
DIMNDSHOAL 41025 NOT AVBL
CAPE LOOKOUT     2200            57     170/ 12/ 13 1027.4F
ONSLOW BAY 41036 NOT AVBL
5 WRITEBCH 41038 NOT AVBL
MASONBORO  41110 2300               46                N/A
WVE H/P(F/S)=  4/ 6 WND WVE H/P(F/S)=  5/ 6

WILM HARBR 41108 2300               47                N/A
WVE H/P(F/S)=  4/ 7 WND WVE H/P(F/S)=  3/ 7

27WRITEBCH 41037 NOT AVBL
FRYING PAN 41013 2300            66 62  180/ 14/ 16 1027.5F
WVE H/P(F/S)=  6/ 8 WND WVE H/P(F/S)=  5/ 5 SWL H/P/D(F/S/D)=  5/100/ 8

SUNST NRSH 41024 2200            48     350/  6/  8   N/A
CAPRS NRSH 41029 NOT AVBL
EDISTO     41004 2300            57 69  360/ 10/ 12 1027.4R
WVE H/P(F/S)=  7/ 8 WND WVE H/P(F/S)=  2/ 4 SWL H/P/D(F/S/D)=  7/ 8



..........OFFSHORE BUOYS BEYOND 100 NM OFFSHORE...........
.....IN A TRIANGLE---HAT TO BERMUDA TO BAHAMAS TO HAT.....


STATION/POSITION TIME  SKY/WX   TEMP    WIND        PRES    VSBY
                                AIR SEA DIR/SP/G
                 (UTC)          (F)     (DEG/KT/KT) (MB)    (MI)
150E HAT   41001 NOT AVBL
W BERMUDA  41048 2158            66 68   80/ 16/ 17 1030.4R
WVE H/P(F/S)=  8/ 8 WND WVE H/P(F/S)=  5/ 6 SWL H/P/D(F/S/D)=  5/ 60/ 8

ATLANTIC S 41049 2241            73 74   60/ 12/ 14 1025.8R
WVE H/P(F/S)=  6/ 9 WND WVE H/P(F/S)=  2/ 5 SWL H/P/D(F/S/D)=  5/ 60/ 9

E BAHAMAS  41046 2238            76 78   60/ 17/ 21 1023.3R
WVE H/P(F/S)=  7/ 9 WND WVE H/P(F/S)=  5/ 7 SWL H/P/D(F/S/D)=  5/100/ 9

NE BAHAMAS 41047 2152            71 74   60/ 12/ 17 1026.6R
WVE H/P(F/S)=  9/10 WND WVE H/P(F/S)=  3/ 6 SWL H/P/D(F/S/D)=  8/ 20/10

120E CANVRL41010 2300            72 75  100/ 14/ 17 1026.7R
WVE H/P(F/S)=  8/10 WND WVE H/P(F/S)=  3/ 5 SWL H/P/D(F/S/D)=  7/ 60/10


END


USA.gov is the U.S. government's official web portal to all federal, state and local government web resources and services.